Location: Votelez
(50.0000°N, 15.0000°E)
Time: 05:15:05
(UTC+01:00)

ARIANE 6 FM1 Upper Stage - Pass Details

Date: 16 February 2026
Orbit: 523 x 607 km, 62.0° (Epoch: 11 March)

Event Time Altitude Azimuth Distance (km) Brightness Sun altitude
Rises 20:17:20 0° 303° (WNW) 2,659 7.2 -28.9°
Reaches altitude 10° 20:20:05 10° 283° (WNW) 1,768 6.1 -29.3°
Maximum altitude 20:22:42 17° 241° (WSW) 1,372 5.0 -29.7°
Enters shadow 20:22:53 17° 238° (WSW) 1,375 5.0 -29.7°
